This demonstration page uses our WeatherBlox Daily Observations layout. Learn more.

Hourly Observations for April 25, 2018

Temp ( °F °C ) Dew Point ( °F °C ) Humidity (%) Winds ( mph kmh ) Pressure ( in mb ) Visibility ( mi km ) Precip ( " mm )
12:35 am 00:35 Cloudy 39 3.8 38 3.1 95 95 NNW 15 24 30.39 1029 10 16.0934 0 0
12:55 am 00:55 Cloudy 39 3.7 37 3 95 95 NNW 15 24 30.39 1029 10 16.0934 0 0
1:15 am 01:15 Cloudy 38 3.6 37 3 96 96 NNW 14 22 30.36 1028 10 16.0934 0 0
1:35 am 01:35 Cloudy 38 3.6 37 3 96 96 NNW 14 22 30.36 1028 7 11.26538 0 0
1:55 am 01:55 Cloudy 38 3.6 37 3 96 96 NNW 13 20 30.36 1028 10 16.0934 0 0
2:15 am 02:15 Cloudy 38 3.6 37 3 96 96 NNW 15 24 30.36 1028 10 16.0934 0 0
2:35 am 02:35 Cloudy 39 3.7 37 3 95 95 NNW 13 20 30.36 1028 10 16.0934 0 0
2:55 am 02:55 Cloudy 39 3.7 37 2.8 94 94 NNW 12 19 30.36 1028 10 16.0934 0 0
3:15 am 03:15 Cloudy 38 3.5 37 3 97 97 NNW 14 22 30.36 1028 7 11.26538 0 0
3:35 am 03:35 Cloudy 38 3.5 37 3 97 97 N 13 20 30.36 1028 7 11.26538 0 0
3:55 am 03:55 Cloudy 39 3.7 38 3.1 96 96 N 13 20 30.36 1028 10 16.0934 0 0
4:15 am 04:15 Cloudy 39 3.7 38 3.1 96 96 NNW 12 19 30.36 1028 7 11.26538 0 0
4:35 am 04:35 Cloudy with Mist and Fog 38 3.6 38 3.1 97 97 NNW 12 19 30.36 1028 4 6.43736 0 0
4:55 am 04:55 Cloudy with Mist and Fog 38 3.6 38 3.2 97 97 N 13 20 30.36 1028 5 8.0467 0 0
5:15 am 05:15 Cloudy 39 3.7 38 3.2 97 97 NNW 12 19 30.36 1028 10 16.0934 0 0
5:35 am 05:35 Cloudy with Light Drizzle 38 3.6 37 3 96 96 NNW 15 24 30.36 1028 10 16.0934 0 0
5:55 am 05:55 Cloudy with Light Drizzle 39 3.7 37 3 95 95 NNW 13 20 30.36 1028 10 16.0934 0 0
6:15 am 06:15 Cloudy with Light Rain 39 3.7 37 2.9 95 95 N 13 20 30.36 1028 10 16.0934 0 0
6:35 am 06:35 Cloudy with Light Drizzle 39 3.7 37 2.8 94 94 N 12 19 30.36 1028 10 16.0934 0 0
6:55 am 06:55 Cloudy with Light Drizzle 39 3.7 37 2.6 93 93 N 16 26 30.36 1028 10 16.0934 0 0
7:15 am 07:15 Cloudy 39 3.7 37 2.8 94 94 N 14 22 30.36 1028 10 16.0934 0 0
7:35 am 07:35 Cloudy with Light Rain 39 3.8 37 2.9 94 94 N 13 20 30.36 1028 10 16.0934 0 0
7:55 am 07:55 Cloudy 39 4 37 2.8 92 92 N 14 22 30.36 1028 10 16.0934 0 0
8:15 am 08:15 Cloudy 40 4.5 37 2.7 88 88 N 20 31 30.36 1028 10 16.0934 0 0
8:35 am 08:35 Cloudy 40 4.3 37 2.7 89 89 N 14 22 30.36 1028 10 16.0934 0 0
8:55 am 08:55 Cloudy 40 4.3 37 2.6 89 89 N 14 22 30.36 1028 10 16.0934 0 0
9:15 am 09:15 Cloudy 41 5 38 3.3 89 89 N 10 17 30.36 1028 10 16.0934 0 0
9:35 am 09:35 Mostly Cloudy 41 5.1 36 2.1 81 81 N 13 20 30.36 1028 10 16.0934 0 0
9:55 am 09:55 Cloudy 44 6.4 36 2.4 76 76 N 13 20 30.33 1027 10 16.0934 0 0
10:15 am 10:15 Mostly Cloudy 44 6.7 36 2.4 74 74 N 12 19 30.33 1027 10 16.0934 0 0
10:35 am 10:35 Cloudy 45 7.1 35 1.8 69 69 N 14 22 30.33 1027 10 16.0934 0 0
10:55 am 10:55 Mostly Cloudy 46 7.5 37 2.6 71 71 N 14 22 30.33 1027 10 16.0934 0 0
11:15 am 11:15 Mostly Cloudy 45 7.1 36 2.1 71 71 N 13 20 30.3 1026 10 16.0934 0 0
11:35 am 11:35 Mostly Cloudy 46 7.9 37 2.9 71 71 N 10 17 30.3 1026 10 16.0934 0 0
11:55 am 11:55 Mostly Cloudy 48 9 37 2.9 66 66 NNW 9 15 30.27 1025 10 16.0934 0 0
12:15 pm 12:15 Mostly Cloudy 48 9 36 2.4 64 64 N 9 15 30.27 1025 10 16.0934 0 0
12:35 pm 12:35 Mostly Cloudy 49 9.4 36 2.3 62 62 N 8 13 30.24 1024 10 16.0934 0 0
12:55 pm 12:55 Partly Cloudy 51 10.4 36 2.2 57 57 N 10 17 30.24 1024 10 16.0934 0 0
1:15 pm 13:15 Sunny 51 10.5 35 1.9 56 56 N 6 9 30.24 1024 10 16.0934 0 0
1:35 pm 13:35 Partly Cloudy 52 11 36 2 54 54 N 10 17 30.18 1022 10 16.0934 0 0
1:55 pm 13:55 Partly Cloudy 52 11.3 36 2 53 53 NNE 12 19 30.18 1022 10 16.0934 0 0
2:15 pm 14:15 Partly Cloudy 53 11.8 35 1.6 50 50 N 8 13 30.18 1022 10 16.0934 0 0
2:35 pm 14:35 Sunny 53 11.8 34 1.2 49 49 NNE 3 6 30.15 1021 10 16.0934 0 0
2:55 pm 14:55 Sunny 54 12.2 34 1.3 48 48 N 8 13 30.15 1021 10 16.0934 0 0
3:15 pm 15:15 Sunny 54 12.3 35 1.5 48 48 N 6 9 30.15 1021 10 16.0934 0 0
3:35 pm 15:35 Sunny 55 12.8 36 2.2 49 49 NNE 8 13 30.12 1020 10 16.0934 0 0
3:55 pm 15:55 Sunny 56 13.1 36 2 47 47 N 6 9 30.12 1020 10 16.0934 0 0
4:15 pm 16:15 Sunny 56 13.2 34 0.9 43 43 NNW 6 9 30.12 1020 10 16.0934 0 0
4:35 pm 16:35 Sunny 57 13.7 34 1.1 43 43 NNE 9 15 30.12 1020 10 16.0934 0 0
4:55 pm 16:55 Sunny 57 13.7 34 1.2 43 43 W 7 11 30.12 1020 10 16.0934 0 0
5:15 pm 17:15 Sunny 56 13.6 33 0.7 42 42 Calm 30.12 1020 10 16.0934 0 0
5:35 pm 17:35 Sunny 57 13.9 34 1.1 42 42 NNW 5 7 30.09 1019 10 16.0934 0 0
5:55 pm 17:55 Sunny 57 14.1 32 0.2 39 39 NNW 6 9 30.06 1018 10 16.0934 0 0
6:15 pm 18:15 Sunny 57 14.1 33 0.5 40 40 WNW 5 7 30.06 1018 10 16.0934 0 0
6:35 pm 18:35 Sunny 57 14 32 0.1 39 39 Calm 30.06 1018 10 16.0934 0 0
6:55 pm 18:55 Sunny 57 14 33 0.6 40 40 NNW 3 6 30.06 1018 10 16.0934 0 0
7:15 pm 19:15 Sunny 57 13.7 33 0.6 41 41 Calm 30.03 1017 10 16.0934 0 0
7:35 pm 19:35 Sunny 56 13.5 33 0.4 41 41 Calm 30.03 1017 10 16.0934 0 0
7:55 pm 19:55 Sunny 55 12.5 35 1.4 47 47 SSE 3 6 30.06 1018 10 16.0934 0 0
8:15 pm 20:15 Sunny 53 11.8 36 2 51 51 Calm 30.06 1018 10 16.0934 0 0
8:35 pm 20:35 Clear 52 11 36 2.1 55 55 SSE 3 6 30.06 1018 10 16.0934 0 0
8:55 pm 20:55 Clear 49 9.7 36 2.2 60 60 SSE 7 11 30.09 1019 10 16.0934 0 0
9:15 pm 21:15 Clear 47 8.1 36 2.3 67 67 SSE 6 9 30.06 1018 10 16.0934 0 0
9:35 pm 21:35 Clear 46 7.9 36 2 67 67 SSE 8 13 30.06 1018 10 16.0934 0 0
9:55 pm 21:55 Clear 46 7.7 36 2 68 68 SSE 8 13 30.06 1018 10 16.0934 0 0
10:15 pm 22:15 Clear 44 6.8 36 2.1 72 72 S 7 11 30.06 1018 10 16.0934 0 0
10:35 pm 22:35 Clear 44 6.6 35 1.9 72 72 S 7 11 30.06 1018 10 16.0934 0 0
10:55 pm 22:55 Clear 45 7.2 35 1.8 69 69 S 7 11 30.06 1018 10 16.0934 0 0
11:15 pm 23:15 Clear 44 6.6 35 1.6 71 71 S 8 13 30.03 1017 10 16.0934 0 0
11:35 pm 23:35 Clear 44 6.9 35 1.8 70 70 S 8 13 30.03 1017 10 16.0934 0 0
11:55 pm 23:55 Clear 45 7.1 35 1.9 70 70 S 8 13 30.03 1017 10 16.0934 0 0

Powered by AerisWeather